Location: Bonningues
(50.7927°N, 2.0150°E)
Time: 17:06:18
(UTC+00:00)

Lacrosse 5 - Pass Details

Date: 08 August 2020
Orbit: 716 x 722 km, 57.0° (Epoch: 21 September)

Event Time Altitude Azimuth Distance (km) Brightness Sun altitude
Rises 19:51:54 0° 289° (WNW) 3,129 7.2 -4.6°
Reaches altitude 10° 19:54:24 10° 296° (WNW) 2,209 6.3 -4.9°
Maximum altitude 19:59:15 43° 8° (N) 1,010 2.9 -5.6°
Drops below altitude 10° 20:04:07 10° 80° (E) 2,211 4.0 -6.2°
Enters shadow 20:06:21 - 87° (E) 3,034 4.6 -6.5°
